CW3340 Weather Reports


time (UTC)temp
F
wind
direction
speed
knots
gust
knots
rain 1hr
in
rain 24hr
in
rain mn
in
humidity
%
barometer
mb
20260502221105 61 309 2.6 7.0 0.00 0.02 0.02 38 1009.6
20260502220605 61 354 2.6 7.8 0.00 0.02 0.02 38 1009.6
20260502220106 61 349 2.6 8.7 0.00 0.02 0.02 37 1009.7
20260502215605 61 30 5.2 8.7 0.00 0.02 0.02 38 1009.7
20260502215105 61 330 4.3 8.7 0.00 0.02 0.02 38 1009.8
20260502214605 61 316 2.6 7.8 0.00 0.02 0.02 40 1009.7
20260502214105 61 347 3.5 8.7 0.00 0.02 0.02 39 1009.7
20260502213605 61 329 1.7 8.7 0.00 0.02 0.02 41 1009.7
20260502213105 61 331 2.6 7.8 0.00 0.02 0.02 41 1009.6
20260502212605 61 25 3.5 10.4 0.00 0.02 0.02 41 1009.6
20260502212105 61 340 3.5 10.4 0.00 0.02 0.02 41 1009.5
20260502211607 62 338 4.3 10.4 0.00 0.02 0.02 39 1009.4
20260502211105 62 28 0.9 7.0 0.00 0.02 0.02 37 1009.3
20260502210605 62 345 3.5 7.8 0.00 0.02 0.02 37 1009.3
20260502210106 61 275 4.3 7.8 0.00 0.02 0.02 37 1009.2
20260502205605 61 277 1.7 5.2 0.00 0.02 0.02 38 1009.2
20260502205105 62 307 2.6 11.3 0.00 0.02 0.02 38 1009.3
20260502204605 62 324 1.7 11.3 0.00 0.02 0.02 40 1009.3
20260502204105 62 58 2.6 5.2 0.00 0.02 0.02 42 1009.3
20260502203605 61 124 0.9 7.0 0.00 0.02 0.02 42 1009.4
20260502203105 62 186 1.7 7.0 0.00 0.02 0.02 40 1009.4
20260502202605 63 19 1.7 7.0 0.00 0.02 0.02 42 1009.5
20260502202105 62 350 1.7 4.3 0.00 0.02 0.02 43 1009.5
20260502201606 61 281 1.7 2.6 0.00 0.02 0.02 43 1009.6
20260502201118 61 49 1.7 10.4 0.00 0.02 0.02 44 1009.7
20260502200605 61 68 1.7 10.4 0.00 0.02 0.02 44 1009.7
20260502200106 60 29 1.7 6.1 0.00 0.02 0.02 44 1009.8
20260502195605 60 305 3.5 10.4 0.00 0.02 0.02 43 1010.0
20260502195105 61 311 4.3 10.4 0.00 0.02 0.02 44 1010.0
20260502194605 61 314 4.3 10.4 0.00 0.02 0.02 44 1010.0
20260502194105 61 186 1.7 7.8 0.00 0.02 0.02 44 1010.1
20260502193605 61 333 2.6 10.4 0.00 0.02 0.02 44 1010.2
20260502193105 61 351 3.5 10.4 0.00 0.02 0.02 44 1010.4
20260502192605 61 332 2.6 8.7 0.00 0.02 0.02 47 1010.4
20260502192105 60 297 1.7 7.8 0.00 0.02 0.02 46 1010.5
20260502191605 61 237 2.6 7.8 0.00 0.02 0.02 47 1010.5
20260502191105 61 289 4.3 7.8 0.00 0.02 0.02 46 1010.6
20260502190605 61 296 4.3 7.8 0.00 0.02 0.02 47 1010.6
20260502190106 62 276 2.6 7.8 0.00 0.02 0.02 47 1010.7
20260502185606 62 319 4.3 7.8 0.00 0.02 0.02 47 1010.8
20260502185105 63 349 2.6 10.4 0.00 0.02 0.02 47 1010.8
20260502184605 62 331 2.6 10.4 0.00 0.02 0.02 50 1010.8
20260502184105 61 359 2.6 8.7 0.00 0.02 0.02 50 1010.8
20260502183606 61 323 3.5 8.7 0.00 0.02 0.02 50 1010.8
20260502183105 61 273 2.6 10.4 0.00 0.02 0.02 50 1010.8
20260502182605 61 242 4.3 10.4 0.00 0.02 0.02 51 1010.9
20260502182105 61 292 2.6 7.8 0.00 0.02 0.02 52 1010.9
20260502181606 62 311 2.6 7.0 0.00 0.02 0.02 52 1011.0
20260502181105 60 4 2.6 7.0 0.00 0.02 0.02 53 1011.0
20260502180605 60 249 1.7 7.0 0.00 0.02 0.02 54 1011.0
20260502180106 59 313 1.7 7.0 0.00 0.02 0.02 55 1011.0
20260502170106 58 305 1.7 6.1 0.00 0.02 0.02 61 1011.5
20260502164105 57 269 2.6 8.7 0.00 0.02 0.02 64 1011.7
20260502163605 57 272 4.3 7.8 0.00 0.02 0.02 65 1011.8
20260502163105 57 311 4.3 7.8 0.00 0.02 0.02 66 1011.9
20260502162605 57 269 2.6 7.0 0.00 0.02 0.02 66 1011.8
20260502162105 57 246 2.6 5.2 0.00 0.02 0.02 66 1011.8
20260502161607 57 226 0.9 2.6 0.00 0.02 0.02 67 1011.7
20260502161105 57 227 1.7 2.6 0.00 0.02 0.02 68 1011.8
20260502160605 57 200 1.7 2.6 0.00 0.02 0.02 69 1011.8
20260502160106 57 253 1.7 2.6 0.00 0.02 0.02 70 1011.8
20260502152105 55 334 1.7 7.0 0.00 0.02 0.02 72 1012.0
20260502151605 55 71 0.9 2.6 0.00 0.02 0.02 73 1011.9
20260502151105 55 32 0.9 2.6 0.00 0.02 0.02 74 1012.0
20260502150605 54 316 1.7 2.6 0.00 0.02 0.02 74 1012.0
20260502150106 54 310 1.7 2.6 0.00 0.02 0.02 74 1012.1
20260502140106 55 328 1.7 2.6 0.00 0.02 0.02 74 1012.2
20260502130605 54 70 0.9 2.6 0.00 0.02 0.02 79 1012.4
20260502130107 54 47 1.7 4.3 0.00 0.02 0.02 80 1012.4
20260502123605 52 36 2.6 6.1 0.00 0.02 0.02 82 1012.2
20260502123105 52 37 4.3 4.3 0.00 0.02 0.02 84 1012.2
20260502122605 52 47 2.6 4.3 0.00 0.02 0.02 84 1012.2
20260502122105 52 48 1.7 5.2 0.00 0.02 0.02 85 1012.1
20260502121605 52 60 3.5 5.2 0.00 0.02 0.02 86 1012.2
20260502121105 52 45 2.6 5.2 0.00 0.02 0.02 87 1012.1
20260502120605 52 34 0.9 2.6 0.00 0.02 0.02 88 1012.2
20260502120106 52 10 1.7 2.6 0.00 0.02 0.02 88 1012.2
20260502115605 52 27 1.7 2.6 0.00 0.02 0.02 89 1012.2
20260502115105 52 325 0.9 2.6 0.00 0.02 0.02 90 1012.3
20260502114605 52 304 0.9 2.6 0.00 0.02 0.02 90 1012.4
20260502114105 51 284 1.7 2.6 0.00 0.02 0.02 90 1012.4
20260502113605 51 272 0.9 2.6 0.00 0.02 0.02 90 1012.4
20260502113105 51 244 0.9 1.7 0.00 0.02 0.02 90 1012.4
20260502112605 51 244 0.9 2.6 0.01 0.02 0.02 90 1012.3
20260502112106 51 244 1.7 2.6 0.02 0.02 0.02 90 1012.1
20260502111605 51 202 0.0 1.7 0.02 0.02 0.02 90 1012.0
20260502111105 51 201 0.0 1.7 0.02 0.02 0.02 90 1011.9
20260502110605 51 201 0.0 1.7 0.02 0.02 0.02 90 1011.8
20260502110107 51 201 0.9 1.7 0.02 0.02 0.02 89 1011.6
20260502105605 51 201 0.9 1.7 0.02 0.02 0.02 89 1011.5
20260502105105 51 201 0.0 2.6 0.02 0.02 0.02 89 1011.6
20260502104605 51 202 0.0 2.6 0.02 0.02 0.02 88 1011.5
20260502104105 51 203 1.7 2.6 0.02 0.02 0.02 88 1011.5
20260502103605 51 203 0.9 1.7 0.02 0.02 0.02 87 1011.2
20260502103105 51 258 0.9 1.7 0.02 0.02 0.02 87 1011.4
20260502102605 51 258 0.0 2.6 0.01 0.01 0.01 86 1011.6
20260502102106 51 257 0.9 2.6 0.00 0.00 0.00 86 1011.9
20260502101605 51 256 0.0 2.6 0.00 0.00 0.00 85 1011.7
20260502101105 51 256 0.9 2.6 0.00 0.00 0.00 85 1011.7
20260502100605 51 248 1.7 5.2 0.00 0.00 0.00 85 1011.7
20260502100108 51 239 1.7 5.2 0.00 0.00 0.00 84 1011.8
20260502091105 51 232 1.7 5.2 0.00 0.00 0.00 82 1011.7
20260502090605 51 232 1.7 5.2 0.00 0.00 0.00 82 1011.7
20260502090107 51 200 1.7 7.0 0.00 0.00 0.00 82 1011.7
20260502080107 51 267 0.9 6.1 0.00 0.00 0.00 80 1011.8
20260502071105 51 244 1.7 4.3 0.00 0.00 0.00 78 1011.7
20260502070605 51 223 2.6 6.1 0.00 0.00 0.00 78 1011.8
20260502070107 51 201 1.7 7.0 0.00 0.00 0.00 78 1011.9
20260502065605 51 232 2.6 7.0 0.00 0.00 0.00 78 1011.9
20260502065105 51 220 0.9 5.2 0.00 0.00 0.00 77 1011.9
20260502064605 51 241 1.7 7.8 0.00 0.00 0.00 77 1012.0
20260502064106 51 233 2.6 7.8 0.00 0.00 0.00 77 1011.9
20260502063605 51 179 4.3 6.1 0.00 0.00 0.00 77 1011.9
20260502063106 51 236 2.6 7.0 0.00 0.00 0.00 77 1012.1
20260502062605 51 223 2.6 7.0 0.00 0.00 0.00 77 1012.1
20260502062107 51 246 1.7 6.1 0.00 0.00 0.00 76 1012.0
20260502061605 51 196 2.6 7.0 0.00 0.00 0.00 76 1012.0
20260502061105 51 186 3.5 7.0 0.00 0.00 0.00 76 1012.1
20260502060605 51 222 1.7 5.2 0.00 0.00 0.00 75 1012.2
20260502060107 51 234 1.7 4.3 0.00 0.00 0.00 75 1012.3
20260502055605 51 226 1.7 4.3 0.00 0.00 0.00 75 1012.3
20260502055105 51 190 1.7 4.3 0.00 0.00 0.00 74 1012.2
20260502054605 51 215 1.7 4.3 0.00 0.00 0.00 74 1012.2
20260502054106 51 257 0.9 2.6 0.00 0.00 0.00 74 1012.1
20260502053606 51 259 0.9 2.6 0.00 0.00 0.00 74 1012.1
20260502053106 52 226 1.7 2.6 0.00 0.00 0.00 74 1012.1
20260502052605 52 263 0.9 5.2 0.00 0.00 0.00 74 1011.7
20260502052106 52 230 1.7 5.2 0.00 0.00 0.00 73 1011.8
20260502051606 52 243 1.7 5.2 0.00 0.00 0.00 73 1011.9
20260502051105 52 306 2.6 5.2 0.00 0.00 0.00 73 1011.9
20260502050605 52 211 1.7 6.1 0.00 0.00 0.00 72 1012.0
20260502050107 52 182 2.6 6.1 0.00 0.00 0.00 70 1011.9
20260502045605 52 160 3.5 6.1 0.00 0.00 0.00 69 1012.1
20260502045105 52 184 3.5 5.2 0.00 0.00 0.00 69 1012.0
20260502044605 52 234 0.9 2.6 0.00 0.00 0.00 69 1011.9
20260502044106 53 244 0.9 4.3 0.00 0.00 0.00 68 1011.9
20260502043605 53 242 0.9 5.2 0.00 0.00 0.00 68 1012.0
20260502043105 53 221 1.7 7.0 0.00 0.00 0.00 68 1012.0
20260502042606 53 267 1.7 7.0 0.00 0.00 0.00 68 1012.2
20260502042106 52 283 1.7 5.2 0.00 0.00 0.00 68 1012.2
20260502041606 52 235 0.9 7.8 0.00 0.00 0.00 69 1012.2
20260502041105 52 280 1.7 7.8 0.00 0.00 0.00 69 1012.2
20260502040605 52 277 0.9 7.0 0.00 0.00 0.00 69 1012.3
20260502040107 52 228 4.3 7.0 0.00 0.00 0.00 70 1012.2
20260502035605 52 244 1.7 7.8 0.00 0.00 0.00 71 1012.2
20260502035106 52 205 2.6 10.4 0.00 0.00 0.00 71 1012.2
20260502034605 52 211 1.7 10.4 0.00 0.00 0.00 71 1012.2
20260502034106 53 247 1.7 7.0 0.00 0.00 0.00 72 1012.1
20260502033606 53 218 1.7 7.0 0.00 0.00 0.00 73 1012.0
20260502033106 53 167 2.6 7.0 0.00 0.00 0.00 73 1012.0
20260502032606 53 205 2.6 10.4 0.00 0.00 0.00 74 1011.9
20260502032106 53 223 3.5 10.4 0.00 0.00 0.00 75 1012.0
20260502031606 53 200 0.9 7.8 0.00 0.00 0.00 76 1012.1
20260502031105 52 224 3.5 7.8 0.00 0.00 0.00 77 1012.2
20260502030606 52 209 1.7 6.1 0.00 0.00 0.00 78 1012.3
20260502030107 52 189 1.7 6.1 0.00 0.00 0.00 79 1012.3
20260502025606 52 199 2.6 7.0 0.00 0.00 0.00 80 1012.3
20260502025106 51 210 2.6 7.8 0.00 0.00 0.00 80 1012.3
20260502024606 51 208 1.7 8.7 0.00 0.00 0.00 81 1012.4
20260502024106 51 266 1.7 8.7 0.00 0.00 0.00 81 1012.3
20260502023605 51 209 4.3 10.4 0.00 0.00 0.00 81 1012.4
20260502023105 51 168 3.5 10.4 0.00 0.00 0.00 81 1012.3
20260502022605 51 199 3.5 10.4 0.00 0.00 0.00 81 1012.3
20260502022106 51 185 5.2 10.4 0.00 0.00 0.00 82 1012.3
20260502021605 51 176 3.5 12.2 0.00 0.00 0.00 81 1012.2
20260502021105 51 220 7.0 13.0 0.00 0.00 0.00 81 1012.2
20260502020605 51 180 8.7 13.0 0.00 0.00 0.00 81 1012.2
20260502020108 51 189 4.3 12.2 0.00 0.00 0.00 81 1012.2
20260502015605 51 197 6.1 12.2 0.00 0.00 0.00 81 1012.2
20260502015105 51 160 6.1 17.4 0.00 0.00 0.00 81 1012.2
20260502014605 51 207 5.2 17.4 0.00 0.00 0.00 81 1012.2
20260502014106 51 172 8.7 17.4 0.00 0.00 0.00 81 1012.2
20260502013605 51 184 7.8 15.6 0.00 0.00 0.00 81 1012.1
20260502013105 51 190 6.1 15.6 0.00 0.00 0.00 80 1012.1
20260502012605 51 189 5.2 15.6 0.00 0.00 0.00 80 1012.1
20260502012106 51 147 7.0 14.8 0.00 0.00 0.00 79 1012.1
20260502011605 51 187 7.8 14.8 0.00 0.00 0.00 79 1012.0
20260502011105 51 169 5.2 18.2 0.00 0.00 0.00 78 1012.0
20260502010606 52 184 7.8 18.2 0.00 0.00 0.00 77 1012.0
20260502010108 52 140 4.3 10.4 0.00 0.00 0.00 77 1011.9
20260502005605 52 180 6.1 13.0 0.00 0.00 0.00 76 1011.9
20260502005105 52 182 7.8 17.4 0.00 0.00 0.00 76 1011.9
20260502004605 52 186 7.0 17.4 0.00 0.00 0.00 75 1011.9
20260502004108 52 178 10.4 17.4 0.00 0.00 0.00 75 1012.0
20260502003605 52 186 5.2 13.9 0.00 0.00 0.00 74 1011.9
20260502003105 52 189 7.8 14.8 0.00 0.00 0.00 74 1011.9
20260502002605 52 191 10.4 14.8 0.00 0.00 0.00 74 1011.8
20260502002106 52 180 7.0 13.9 0.00 0.00 0.00 74 1011.8
20260502001605 52 198 7.0 13.9 0.00 0.00 0.00 75 1011.8
20260502001105 52 190 5.2 13.9 0.00 0.00 0.00 75 1011.7
20260502000605 52 184 4.3 15.6 0.00 0.00 0.00 75 1011.7
20260502000106 52 188 6.1 15.6 0.00 0.00 0.00 75 1011.6
20260501235605 52 178 9.6 15.6 0.00 0.00 0.00 75 1011.5
20260501235105 52 184 6.1 18.2 0.00 0.00 0.00 75 1011.4
20260501234605 52 191 5.2 18.2 0.00 0.00 0.00 75 1011.4
20260501234106 52 197 6.1 15.6 0.00 0.00 0.00 75 1011.5
20260501233605 52 186 8.7 15.6 0.00 0.00 0.00 74 1011.5
20260501233105 53 186 7.8 15.6 0.00 0.00 0.00 74 1011.4
20260501232605 53 190 8.7 14.8 0.00 0.00 0.00 74 1011.4
20260501232106 53 139 7.0 15.6 0.00 0.00 0.00 74 1011.3
20260501231605 53 200 7.8 15.6 0.00 0.00 0.00 74 1011.3
20260501231105 53 199 5.2 13.9 0.00 0.00 0.00 73 1011.2
20260501230605 53 175 5.2 17.4 0.00 0.00 0.00 73 1011.1
20260501230108 53 150 6.1 17.4 0.00 0.00 0.00 72 1011.1
20260501225605 54 182 8.7 17.4 0.00 0.00 0.00 72 1011.2
20260501225105 54 181 11.3 17.4 0.00 0.00 0.00 71 1011.2
20260501224605 54 183 7.8 17.4 0.00 0.00 0.00 71 1011.2
20260501224106 54 192 7.8 17.4 0.00 0.00 0.00 70 1011.2
20260501223605 54 180 7.8 17.4 0.00 0.00 0.00 70 1011.1
20260501223105 55 198 10.4 17.4 0.00 0.00 0.00 69 1011.2
20260501222605 55 177 5.2 20.0 0.00 0.00 0.00 69 1011.2
20260501222107 55 183 11.3 20.0 0.00 0.00 0.00 68 1011.3
20260501221605 55 185 8.7 17.4 0.00 0.00 0.00 68 1011.4